GW3416 Weather Reports


Display with metric or nautical units.
time (UTC)temp
F
wind
direction
speed
MPH
gust
MPH
rain 1hr
in
rain 24hr
in
rain mn
in
humidity
%
barometer
mb
20260505014520 69 59 1.0 6.0 0.00 0.00 0.00 76 1030.2
20260505013518 71 87 1.0 4.0 0.00 0.00 0.00 73 1030.2
20260505012518 71 7 1.0 4.0 0.00 0.00 0.00 72 1030.3
20260505011517 71 125 1.0 3.0 0.00 0.00 0.00 72 1030.3
20260505010521 70 75 1.0 4.0 0.00 0.00 0.00 74 1030.4
20260505005522 70 105 1.0 4.0 0.00 0.00 0.00 73 1030.6
20260505004518 69 74 1.0 5.0 0.00 0.00 0.00 74 1030.8
20260505003518 69 27 1.0 7.0 0.00 0.00 0.00 73 1031.0
20260505002520 69 26 1.0 6.0 0.00 0.00 0.00 72 1031.2
20260505001542 68 38 1.0 6.0 0.00 0.00 0.00 73 1031.2
20260505000521 68 68 1.0 4.0 0.00 0.00 0.00 73 1031.4
20260504235519 68 115 1.0 5.0 0.00 0.00 0.00 72 1031.4
20260504234518 67 110 0.0 3.0 0.00 0.00 0.00 74 1031.6
20260504233519 67 65 1.0 3.0 0.00 0.00 0.00 74 1031.7
20260504232518 67 118 1.0 4.0 0.00 0.00 0.00 74 1031.8
20260504231519 66 150 0.0 3.0 0.00 0.00 0.00 75 1031.9
20260504230520 66 103 1.0 3.0 0.00 0.00 0.00 74 1032.0
20260504225519 66 139 1.0 3.0 0.00 0.00 0.00 74 1032.2
20260504224519 66 131 1.0 3.0 0.00 0.00 0.00 74 1032.3
20260504223519 65 143 0.0 2.0 0.00 0.00 0.00 75 1032.2
20260504222519 64 127 0.0 2.0 0.00 0.00 0.00 77 1032.3
20260504221520 63 147 1.0 3.0 0.00 0.00 0.00 78 1032.4
20260504220520 63 138 1.0 3.0 0.00 0.00 0.00 79 1032.5
20260504215520 62 159 1.0 2.0 0.00 0.00 0.00 80 1032.5
20260504214540 62 163 0.0 2.0 0.00 0.00 0.00 82 1032.5
20260504213517 61 145 0.0 2.0 0.00 0.00 0.00 85 1032.5
20260504212516 60 174 0.0 2.0 0.00 0.00 0.00 87 1032.5
20260504211558 59 126 0.0 2.0 0.00 0.00 0.00 90 1032.5
20260504210557 58 174 0.0 1.0 0.00 0.00 0.00 92 1032.4
20260504205528 57 162 1.0 3.0 0.00 0.00 0.00 93 1032.5
20260504204528 57 186 0.0 2.0 0.00 0.00 0.00 94 1032.5
20260504203549 56 0.0 0.0 0.00 0.00 0.00 94 1032.5
20260504202529 56 0.0 0.0 0.00 0.00 0.00 94 1032.4
20260504201530 55 0.0 0.0 0.00 0.00 0.00 94 1032.3
20260504200549 55 0.0 0.0 0.00 0.00 0.00 94 1032.2
20260504195528 55 0.0 0.0 0.00 0.00 0.00 94 1032.2
20260504194530 55 0.0 0.0 0.00 0.00 0.00 94 1032.1
20260504193529 55 164 0.0 0.0 0.00 0.00 0.00 94 1032.1
20260504192529 55 172 0.0 1.0 0.00 0.00 0.00 94 1032.1
20260504191529 55 0.0 0.0 0.00 0.00 0.00 94 1032.2
20260504190550 54 0.0 0.0 0.00 0.00 0.00 94 1032.2
20260504185550 54 197 0.0 1.0 0.00 0.00 0.00 94 1032.1
20260504184529 54 0.0 0.0 0.00 0.00 0.00 94 1032.2
20260504183529 54 0.0 0.0 0.00 0.00 0.00 94 1032.2
20260504182529 54 0.0 0.0 0.00 0.00 0.00 94 1032.1
20260504181521 53 172 0.0 1.0 0.00 0.00 0.00 94 1032.0
20260504180520 53 0.0 0.0 0.00 0.00 0.00 93 1032.0
20260504175517 53 0.0 0.0 0.00 0.00 0.00 93 1032.0
20260504174518 52 0.0 0.0 0.00 0.00 0.00 93 1032.0
20260504173538 52 0.0 0.0 0.00 0.00 0.00 93 1032.0
20260504172518 52 0.0 0.0 0.00 0.00 0.00 93 1031.9
20260504171518 52 0.0 0.0 0.00 0.00 0.00 93 1031.9
20260504170538 51 0.0 0.0 0.00 0.00 0.00 93 1031.9
20260504150519 52 0.0 0.0 0.00 0.00 0.00 91 1032.3
20260504140520 55 161 0.0 1.0 0.00 0.00 0.00 90 1032.8
20260504130521 55 0.0 0.0 0.00 0.00 0.00 90 1033.3
20260504110519 54 0.0 0.0 0.00 0.00 0.00 91 1033.4
20260504100542 53 0.0 0.0 0.00 0.00 0.00 90 1033.5
20260504081521 53 188 0.0 0.0 0.00 0.00 0.00 87 1033.3
20260504080518 53 0.0 0.0 0.00 0.00 0.00 87 1033.4
20260504050521 65 165 1.0 2.0 0.00 0.00 0.00 67 1032.1
20260504045521 67 164 0.0 2.0 0.00 0.00 0.00 64 1032.0
20260504044517 68 149 0.0 3.0 0.00 0.00 0.00 62 1031.9
20260504043518 69 140 0.0 3.0 0.00 0.00 0.00 60 1031.9
20260504042521 68 179 0.0 2.0 0.00 0.00 0.00 62 1031.9
20260504041521 66 155 1.0 2.0 0.00 0.00 0.00 64 1032.0
20260504040518 67 103 0.0 3.0 0.00 0.00 0.00 64 1032.2
20260504035519 67 128 0.0 2.0 0.00 0.00 0.00 65 1032.2
20260504034518 67 82 0.0 3.0 0.00 0.00 0.00 65 1032.2
20260504033519 67 153 0.0 3.0 0.00 0.00 0.00 64 1032.2
20260504032519 68 117 1.0 3.0 0.00 0.00 0.00 62 1032.1
20260504031519 68 145 1.0 2.0 0.00 0.00 0.00 61 1032.2
20260504030519 68 136 0.0 3.0 0.00 0.00 0.00 62 1032.2
20260504025518 67 103 1.0 4.0 0.00 0.00 0.00 62 1032.2
20260504024519 67 143 0.0 3.0 0.00 0.00 0.00 63 1032.2
20260504023519 68 132 1.0 3.0 0.00 0.00 0.00 63 1032.2
20260504022539 68 116 1.0 4.0 0.00 0.00 0.00 62 1032.2
20260504021520 68 3 1.0 3.0 0.00 0.00 0.00 61 1032.3
20260504020521 67 41 1.0 4.0 0.00 0.00 0.00 64 1032.3
20260504015520 68 89 1.0 3.0 0.00 0.00 0.00 63 1032.4